H1 CPF 2 NER 2025 5 7 9 127 01 glonass135 H2 1600801 9135 41330 2025 5 7 0 0 0 2025 5 10 23 45 0 900 1 1 0 0 0 1 H9 10 0 60802 0.00000 0 -11558150.751 5525112.729 22066640.593 10 0 60802 900.00000 0 -11035281.176 2803312.719 22831314.478 10 0 60802 1800.00000 0 -10709653.285 -16667.990 23152856.885 10 0 60802 2700.00000 0 -10594463.328 -2865363.504 23024874.632 10 0 60802 3600.00000 0 -10690498.508 -5671915.888 22449693.068 10 0 60802 4500.00000 0 -10986116.975 -8366778.531 21438323.445 10 0 60802 5400.00000 0 -11457768.274 -10884370.472 20010262.183 10 0 60802 6300.00000 0 -12071033.433 -13165571.922 18193124.753 10 0 60802 7200.00000 0 -12782141.910 -15159957.289 16022120.131 10 0 60802 8100.00000 0 -13539902.247 -16827672.601 13539374.934 10 0 60802 9000.00000 0 -14287965.498 -18140878.683 10793119.449 10 0 60802 9900.00000 0 -14967325.887 -19084699.424 7836750.864 10 0 60802 10800.00000 0 -15518952.635 -19657635.168 4727791.724 10 0 60802 11700.00000 0 -15886440.801 -19871423.861 1526764.134 10 0 60802 12600.00000 0 -16018567.780 -19750356.076 -1703997.635 10 0 60802 13500.00000 0 -15871645.787 -19330073.404 -4901572.004 10 0 60802 14400.00000 0 -15411569.237 -18655901.872 -8003687.265 10 0 60802 15300.00000 0 -14615468.885 -17780792.021 -10949945.591 10 0 60802 16200.00000 0 -13472901.512 -16762954.076 -13683008.711 10 0 60802 17100.00000 0 -11986523.847 -15663289.584 -16149721.097 10 0 60802 18000.00000 0 -10172221.620 -14542729.316 -18302147.969 10 0 60802 18900.00000 0 -8058687.865 -13459590.875 -20098507.586 10 0 60802 19800.00000 0 -5686468.034 -12467068.116 -21503979.756 10 0 60802 20700.00000 0 -3106511.947 -11610958.375 -22491375.295 10 0 60802 21600.00000 0 -378293.202 -10927722.914 -23041654.254 10 0 60802 22500.00000 0 2432425.460 -10442961.423 -23144283.867 10 0 60802 23400.00000 0 5256087.831 -10170363.613 -22797430.405 10 0 60802 24300.00000 0 8021997.495 -10111180.617 -22007982.314 10 0 60802 25200.00000 0 10661019.016 -10254236.986 -20791405.184 10 0 60802 26100.00000 0 13108215.726 -10576481.391 -19171432.141 10 0 60802 27000.00000 0 15305315.737 -11044051.710 -17179596.194 10 0 60802 27900.00000 0 17202905.113 -11613808.790 -14854613.916 10 0 60802 28800.00000 0 18762258.516 -12235273.770 -12241632.438 10 0 60802 29700.00000 0 19956732.772 -12852887.114 -9391354.265 10 0 60802 30600.00000 0 20772666.872 -13408494.246 -6359056.546 10 0 60802 31500.00000 0 21209752.325 -13843953.224 -3203523.538 10 0 60802 32400.00000 0 21280859.752 -14103754.876 14087.507 10 0 60802 33300.00000 0 21011330.030 -14137545.278 3231425.433 10 0 60802 34200.00000 0 20437760.510 -13902444.510 6386146.814 10 0 60802 35100.00000 0 19606337.723 -13365064.024 9417117.237 10 0 60802 36000.00000 0 18570786.720 -12503137.523 12265589.450 10 0 60802 36900.00000 0 17390023.097 -11306696.199 14876335.906 10 0 60802 37800.00000 0 16125605.962 -9778738.106 17198714.268 10 0 60802 38700.00000 0 14839098.318 -7935362.322 19187645.717 10 0 60802 39600.00000 0 13589445.129 -5805360.747 20804487.484 10 0 60802 40500.00000 0 12430478.520 -3429282.753 22017783.103 10 0 60802 41400.00000 0 11408654.317 -858009.708 22803876.060 10 0 60802 42300.00000 0 10561114.583 1849103.281 23147374.956 10 0 60802 43200.00000 0 9914157.279 4626443.059 23041460.974 10 0 60802 44100.00000 0 9482177.455 7404621.282 22488031.186 10 0 60802 45000.00000 0 9267124.763 10113122.712 21497674.187 10 0 60802 45900.00000 0 9258500.685 12683010.078 20089477.536 10 0 60802 46800.00000 0 9433896.263 15049573.759 18290669.609 10 0 60802 47700.00000 0 9760048.461 17154816.318 16136101.669 10 0 60802 48600.00000 0 10194371.215 18949668.326 13667579.070 10 0 60802 49500.00000 0 10686896.977 20395842.667 10933053.712 10 0 60802 50400.00000 0 11182546.815 21467249.332 7985692.875 10 0 60802 51300.00000 0 11623632.721 22150910.943 4882842.343 10 0 60802 52200.00000 0 11952485.487 22447340.279 1684904.232 10 0 60802 53100.00000 0 12114095.759 22370363.817 -1545847.912 10 0 60802 54000.00000 0 12058654.966 21946399.003 -4746492.692 10 0 60802 54900.00000 0 11743886.938 21213216.312 -7854698.006 10 0 60802 55800.00000 0 11137069.882 20218239.307 -10809946.270 10 0 60802 56700.00000 0 10216661.700 19016455.611 -13554722.548 10 0 60802 57600.00000 0 8973458.659 17668028.312 -16035641.356 10 0 60802 58500.00000 0 7411237.597 16235709.855 -18204489.369 10 0 60802 59400.00000 0 5546853.886 14782168.588 -20019163.378 10 0 60802 60300.00000 0 3409790.693 13367341.330 -21444485.269 10 0 60802 61200.00000 0 1041178.262 12045923.735 -22452878.639 10 0 60802 62100.00000 0 -1507675.748 10865103.799 -23024894.659 10 0 60802 63000.00000 0 -4177183.500 9862633.033 -23149578.024 10 0 60802 63900.00000 0 -6901722.731 9065315.164 -22824666.981 10 0 60802 64800.00000 0 -9612137.738 8487974.317 -22056624.707 10 0 60802 65700.00000 0 -12238392.062 8132944.275 -20860502.403 10 0 60802 66600.00000 0 -14712263.249 7990098.534 -19259637.590 10 0 60802 67500.00000 0 -16969968.666 8037418.245 -17285194.000 10 0 60802 68400.00000 0 -18954614.382 8242072.764 -14975552.292 10 0 60802 69300.00000 0 -20618366.533 8561966.277 -12375563.475 10 0 60802 70200.00000 0 -21924256.175 8947684.640 -9535679.375 10 0 60802 71100.00000 0 -22847543.833 9344760.047 -6510976.721 10 0 60802 72000.00000 0 -23376588.082 9696157.932 -3360093.440 10 0 60802 72900.00000 0 -23513183.096 9944881.333 -144097.348 10 0 60802 73800.00000 0 -23272352.014 10036583.095 3074691.240 10 0 60802 74700.00000 0 -22681605.509 9922075.889 6233900.562 10 0 60802 75600.00000 0 -21779697.090 9559634.349 9272309.267 10 0 60802 76500.00000 0 -20614927.496 8916992.188 12131026.233 10 0 60802 77400.00000 0 -19243069.179 7972949.834 14754625.882 10 0 60802 78300.00000 0 -17724997.586 6718524.273 17092217.486 10 0 60802 79200.00000 0 -16124128.011 5157591.702 19098428.212 10 0 60802 80100.00000 0 -14503764.781 3306994.641 20734281.273 10 0 60802 81000.00000 0 -12924473.152 1196107.233 21967952.546 10 0 60802 81900.00000 0 -11441583.278 -1134125.104 22775391.237 10 0 60802 82800.00000 0 -10102930.207 -3632633.723 23140792.576 10 0 60802 83700.00000 0 -8946924.125 -6240104.312 23056913.190 10 0 60802 84600.00000 0 -8001031.442 -8891207.830 22525222.569 10 0 60802 85500.00000 0 -7280730.398 -11517093.755 21555886.931 10 0 60803 0.00000 0 -6788985.199 -14048043.076 20167584.990 10 0 60803 900.00000 0 -6516260.910 -16416172.961 18387157.254 10 0 60803 1800.00000 0 -6441079.482 -18558077.582 16249096.432 10 0 60803 2700.00000 0 -6531093.018 -20417299.547 13794885.296 10 0 60803 3600.00000 0 -6744629.962 -21946525.087 11072195.673 10 0 60803 4500.00000 0 -7032648.617 -23109411.946 8133962.923 10 0 60803 5400.00000 0 -7341015.109 -23881972.536 5037353.784 10 0 60803 6300.00000 0 -7613008.699 -24253453.664 1842647.860 10 0 60803 7200.00000 0 -7791947.244 -24226675.394 -1387944.764 10 0 60803 8100.00000 0 -7823820.196 -23817814.642 -4591505.792 10 0 60803 9000.00000 0 -7659815.979 -23055642.809 -7705645.798 10 0 60803 9900.00000 0 -7258635.006 -21980250.199 -10669730.631 10 0 60803 10800.00000 0 -6588488.835 -20641311.890 -13426071.945 10 0 60803 11700.00000 0 -5628699.469 -19095969.318 -15921057.539 10 0 60803 12600.00000 0 -4370830.114 -17406418.034 -18106198.676 10 0 60803 13500.00000 0 -2819298.868 -15637304.358 -19939073.575 10 0 60803 14400.00000 0 -991448.943 -13853041.277 -21384148.784 10 0 60803 15300.00000 0 1082927.789 -12115156.896 -22413462.834 10 0 60803 16200.00000 0 3362594.103 -10479786.736 -23007159.705 10 0 60803 17100.00000 0 5796355.638 -8995414.522 -23153862.735 10 0 60803 18000.00000 0 8324971.911 -7700955.118 -22850882.848 10 0 60803 18900.00000 0 10883410.606 -6624258.454 -22104258.168 10 0 60803 19800.00000 0 13403351.574 -5781095.308 -20928625.285 10 0 60803 20700.00000 0 15815836.831 -5174665.495 -19346925.465 10 0 60803 21600.00000 0 18053957.012 -4795647.122 -17389952.077 10 0 60803 22500.00000 0 20055463.482 -4622782.969 -15095748.338 10 0 60803 23400.00000 0 21765198.365 -4623977.835 -12508867.124 10 0 60803 24300.00000 0 23137242.487 -4757859.444 -9679507.107 10 0 60803 25200.00000 0 24136692.855 -4975736.338 -6662541.658 10 0 60803 26100.00000 0 24740996.604 -5223869.780 -3516459.041 10 0 60803 27000.00000 0 24940786.734 -5445963.639 -302234.009 10 0 60803 27900.00000 0 24740185.517 -5585767.259 2917847.765 10 0 60803 28800.00000 0 24156563.495 -5589681.586 6081390.014 10 0 60803 29700.00000 0 23219764.542 -5409258.725 9127088.157 10 0 60803 30600.00000 0 21970829.521 -5003489.526 11995910.672 10 0 60803 31500.00000 0 20460271.855 -4340782.578 14632237.085 10 0 60803 32400.00000 0 18745976.810 -3400550.808 16984931.004 10 0 60803 33300.00000 0 16890811.840 -2174338.115 19008327.868 10 0 60803 34200.00000 0 14960047.249 -666437.528 20663118.705 10 0 60803 35100.00000 0 13018694.211 1106026.594 21917113.108 10 0 60803 36000.00000 0 11128870.608 3113557.665 22745866.920 10 0 60803 36900.00000 0 9347303.995 5315270.144 23133162.458 10 0 60803 37800.00000 0 7723075.416 7660358.129 23071331.799 10 0 60803 38700.00000 0 6295697.849 10089990.190 22561416.398 10 0 60803 39600.00000 0 5093609.401 12539553.391 21613159.211 10 0 60803 40500.00000 0 4133144.188 14941154.665 20244828.522 10 0 60803 41400.00000 0 3418024.085 17226276.518 18482875.786 10 0 60803 42300.00000 0 2939392.845 19328477.049 16361432.944 10 0 60803 43200.00000 0 2676391.275 21186021.821 13921657.893 10 0 60803 44100.00000 0 2597249.366 22744337.412 11210939.864 10 0 60803 45000.00000 0 2660849.162 23958183.359 8281979.585 10 0 60803 45900.00000 0 2818692.019 24793450.664 5191761.877 10 0 60803 46800.00000 0 3017186.304 25228510.506 2000440.868 10 0 60803 47700.00000 0 3200157.666 25255055.650 -1229839.820 10 0 60803 48600.00000 0 3311474.173 24878398.619 -4436167.946 10 0 60803 49500.00000 0 3297673.509 24117213.831 -7556099.593 10 0 60803 50400.00000 0 3110479.212 23002734.728 -10528886.678 10 0 60803 51300.00000 0 2709097.738 21577440.277 -13296669.803 10 0 60803 52200.00000 0 2062197.609 19893286.968 -15805612.119 10 0 60803 53100.00000 0 1149485.736 18009561.793 -18006951.220 10 0 60803 54000.00000 0 -37186.633 15990447.535 -19857948.217 10 0 60803 54900.00000 0 -1493235.544 13902403.537 -21322715.497 10 0 60803 55800.00000 0 -3201298.724 11811472.492 -22372907.459 10 0 60803 56700.00000 0 -5131734.737 9780626.331 -22988261.571 10 0 60803 57600.00000 0 -7243646.053 7867261.962 -23156980.244 10 0 60803 58500.00000 0 -9486383.200 6120950.854 -22875947.201 10 0 60803 59400.00000 0 -11801467.206 4581535.170 -22150775.328 10 0 60803 60300.00000 0 -14124850.320 3277648.313 -20995686.046 10 0 60803 61200.00000 0 -16389421.072 2225719.745 -19433223.441 10 0 60803 62100.00000 0 -18527649.850 1429503.548 -17493809.237 10 0 60803 63000.00000 0 -20474265.487 880148.342 -15215147.614 10 0 60803 63900.00000 0 -22168852.140 556803.702 -12641491.470 10 0 60803 64800.00000 0 -23558259.154 427735.920 -9822784.283 10 0 60803 65700.00000 0 -24598724.335 451904.934 -6813693.899 10 0 60803 66600.00000 0 -25257622.897 580935.106 -3672556.650 10 0 60803 67500.00000 0 -25514769.846 761396.284 -460251.880 10 0 60803 68400.00000 0 -25363221.988 937298.685 2760971.799 10 0 60803 69300.00000 0 -24809546.498 1052696.334 5928696.110 10 0 60803 70200.00000 0 -23873545.025 1054289.279 8981535.801 10 0 60803 71100.00000 0 -22587444.872 893914.854 11860321.547 10 0 60803 72000.00000 0 -20994590.835 530822.926 14509240.560 10 0 60803 72900.00000 0 -19147691.930 -66361.029 16876913.282 10 0 60803 73800.00000 0 -17106695.608 -918068.181 18917385.767 10 0 60803 74700.00000 0 -14936377.444 -2032680.753 20591018.944 10 0 60803 75600.00000 0 -12703746.000 -3405936.265 21865257.906 10 0 60803 76500.00000 0 -10475370.176 -5020868.207 22715266.549 10 0 60803 77400.00000 0 -8314739.616 -6848287.527 23124415.306 10 0 60803 78300.00000 0 -6279767.425 -8847786.883 23084612.349 10 0 60803 79200.00000 0 -4420538.645 -10969227.849 22596471.364 10 0 60803 80100.00000 0 -2777397.986 -13154651.012 21669311.961 10 0 60803 81000.00000 0 -1379456.352 -15340531.027 20320991.719 10 0 60803 81900.00000 0 -243578.435 -17460283.967 18577572.057 10 0 60803 82800.00000 0 626106.214 -19446923.147 16472823.209 10 0 60803 83700.00000 0 1238148.165 -21235752.907 14047576.852 10 0 60803 84600.00000 0 1613181.469 -22766987.571 11348937.980 10 0 60803 85500.00000 0 1782810.713 -23988185.346 8429370.785 10 0 60804 0.00000 0 1788029.124 -24856394.137 5345676.319 10 0 60804 900.00000 0 1677235.225 -25339918.551 2157880.336 10 0 60804 1800.00000 0 1503932.988 -25419631.605 -1071942.235 10 0 60804 2700.00000 0 1324214.139 -25089776.568 -4280887.852 10 0 60804 3600.00000 0 1194130.809 -24358223.282 -7406460.865 10 0 60804 4500.00000 0 1167071.534 -23246168.369 -10387802.098 10 0 60804 5400.00000 0 1291253.466 -21787292.001 -13166884.003 10 0 60804 6300.00000 0 1607438.502 -20026407.165 -15689647.962 10 0 60804 7200.00000 0 2146971.310 -18017659.003 -17907060.708 10 0 60804 8100.00000 0 2930223.141 -15822350.768 -19776068.858 10 0 60804 9000.00000 0 3965507.807 -13506488.470 -21260432.992 10 0 60804 9900.00000 0 5248515.861 -11138147.820 -22331425.378 10 0 60804 10800.00000 0 6762290.871 -8784773.986 -22968378.579 10 0 60804 11700.00000 0 8477748.778 -6510526.929 -23159075.245 10 0 60804 12600.00000 0 10354718.411 -4373782.613 -22899972.660 10 0 60804 13500.00000 0 12343459.507 -2424893.223 -22196258.800 10 0 60804 14400.00000 0 14386594.789 -704298.286 -21061739.877 10 0 60804 15300.00000 0 16421375.509 758936.395 -19518562.366 10 0 60804 16200.00000 0 18382186.237 1948093.181 -17596775.540 10 0 60804 17100.00000 0 20203184.818 2859251.906 -15333743.324 10 0 60804 18000.00000 0 21820967.970 3501197.443 -12773416.992 10 0 60804 18900.00000 0 23177151.967 3894791.366 -9965482.741 10 0 60804 19800.00000 0 24220761.395 4071835.759 -6964400.357 10 0 60804 20700.00000 0 24910326.902 4073478.203 -3828351.325 10 0 60804 21600.00000 0 25215604.899 3948225.984 -618116.332 10 0 60804 22500.00000 0 25118847.772 3749653.712 2604096.521 10 0 60804 23400.00000 0 24615571.792 3533901.253 5775850.485 10 0 60804 24300.00000 0 23714790.661 3357067.510 8835683.142 10 0 60804 25200.00000 0 22438704.768 3272609.923 11724290.728 10 0 60804 26100.00000 0 20821858.751 3328859.283 14385671.272 10 0 60804 27000.00000 0 18909801.956 3566754.655 16768204.882 10 0 60804 27900.00000 0 16757306.884 4017894.068 18825650.727 10 0 60804 28800.00000 0 14426219.034 4702983.535 20518041.783 10 0 60804 29700.00000 0 11983026.696 5630750.506 21812460.398 10 0 60804 30600.00000 0 9496250.846 6797368.600 22683679.877 10 0 60804 31500.00000 0 7033762.750 8186419.320 23114659.704 10 0 60804 32400.00000 0 4660139.986 9769394.181 23096884.615 10 0 60804 33300.00000 0 2434170.060 11506718.243 22630540.530 10 0 60804 34200.00000 0 406604.962 13349254.179 21724523.206 10 0 60804 35100.00000 0 -1381740.222 15240225.872 20396278.525 10 0 60804 36000.00000 0 -2901465.619 17117482.642 18671476.404 10 0 60804 36900.00000 0 -4135580.129 18916010.529 16583523.489 10 0 60804 37800.00000 0 -5079968.733 20570586.137 14172922.990 10 0 60804 38700.00000 0 -5743314.047 22018461.990 11486493.143 10 0 60804 39600.00000 0 -6146475.570 23201970.329 8576458.848 10 0 60804 40500.00000 0 -6321353.180 24070935.201 5499433.910 10 0 60804 41400.00000 0 -6309283.454 24584790.346 2315313.805 10 0 60804 42300.00000 0 -6159037.492 24714312.453 -913898.844 10 0 60804 43200.00000 0 -5924506.200 24442895.625 -4125312.253 10 0 60804 44100.00000 0 -5662172.502 23767312.298 -7256382.017 10 0 60804 45000.00000 0 -5428479.184 22697927.847 -10246140.684 10 0 60804 45900.00000 0 -5277205.540 21258359.495 -13036395.148 10 0 60804 46800.00000 0 -5256965.498 19484593.914 -15572867.333 10 0 60804 47700.00000 0 -5408934.432 17423601.033 -17806255.105 10 0 60804 48600.00000 0 -5764901.869 15131502.866 -19693192.275 10 0 60804 49500.00000 0 -6345732.981 12671374.855 -21197088.981 10 0 60804 50400.00000 0 -7160304.127 10110772.448 -22288836.430 10 0 60804 51300.00000 0 -8204957.294 7519086.754 -22947363.046 10 0 60804 52200.00000 0 -9463496.207 4964839.729 -23160032.191 10 0 60804 53100.00000 0 -10907723.947 2513031.360 -22922874.836 10 0 60804 54000.00000 0 -12498499.223 222648.530 -22240653.841 10 0 60804 54900.00000 0 -14187266.792 -1855562.002 -21126759.609 10 0 60804 55800.00000 0 -15917997.850 -3680965.447 -19602940.033 10 0 60804 56700.00000 0 -17629459.307 -5224479.700 -17698870.589 10 0 60804 57600.00000 0 -19257717.326 -6469527.047 -15451573.277 10 0 60804 58500.00000 0 -20738770.841 -7412459.353 -12904695.806 10 0 60804 59400.00000 0 -22011205.477 -8062441.081 -10107664.937 10 0 60804 60300.00000 0 -23018757.484 -8440796.975 -7114730.097 10 0 60804 61200.00000 0 -23712680.962 -8579853.313 -3983915.500 10 0 60804 62100.00000 0 -24053819.827 -8521322.663 -775900.677 10 0 60804 63000.00000 0 -24014298.157 -8314300.911 2447149.361 10 0 60804 63900.00000 0 -23578758.319 -8012961.369 5622782.046 10 0 60804 64800.00000 0 -22745095.018 -7674043.342 8689460.483 10 0 60804 65700.00000 0 -21524654.258 -7354240.982 11587749.171 10 0 60804 66600.00000 0 -19941888.366 -7107602.385 14261459.606 10 0 60804 67500.00000 0 -18033480.711 -6983048.443 16658734.098 10 0 60804 68400.00000 0 -15846975.691 -7022115.930 18733047.251 10 0 60804 69300.00000 0 -13438969.957 -7257020.051 20444106.119 10 0 60804 70200.00000 0 -10872939.017 -7709118.418 21758631.978 10 0 60804 71100.00000 0 -8216788.340 -8387841.789 22651008.822 10 0 60804 72000.00000 0 -5540229.600 -9290137.647 23103786.041 10 0 60804 72900.00000 0 -2912089.939 -10400451.374 23108025.388 10 0 60804 73800.00000 0 -397665.086 -11691247.533 22663485.085 10 0 60804 74700.00000 0 1943774.415 -13124051.163 21778636.766 10 0 60804 75600.00000 0 4061220.705 -14650967.268 20470514.032 10 0 60804 76500.00000 0 5913817.033 -16216616.404 18764394.425 10 0 60804 77400.00000 0 7472318.513 -17760406.492 16693319.845 10 0 60804 78300.00000 0 8720064.251 -19219046.405 14297463.601 10 0 60804 79200.00000 0 9653420.224 -20529196.142 11623355.438 10 0 60804 80100.00000 0 10281674.420 -21630142.017 8722978.956 10 0 60804 81000.00000 0 10626388.928 -22466383.666 5652758.723 10 0 60804 81900.00000 0 10720236.819 -22990022.895 2472456.882 10 0 60804 82800.00000 0 10605373.674 -23162852.394 -755998.640 10 0 60804 83700.00000 0 10331413.700 -22958054.882 -3969730.588 10 0 60804 84600.00000 0 9953097.404 -22361439.683 -7106148.623 10 0 60804 85500.00000 0 9527751.142 -21372163.534 -10104179.852 10 0 60805 0.00000 0 9112647.744 -20002904.596 -12905468.150 10 0 60805 900.00000 0 8762381.340 -18279481.156 -15455519.188 10 0 60805 1800.00000 0 8526369.413 -16239932.965 -17704764.257 10 0 60805 2700.00000 0 8446588.046 -13933101.624 -19609526.693 10 0 60805 3600.00000 0 8555637.311 -11416771.771 -21132868.249 10 0 60805 4500.00000 0 8875218.539 -8755450.737 -22245300.776 10 0 60805 5400.00000 0 9415087.623 -6017879.970 -22925349.885 10 0 60805 6300.00000 0 10172528.086 -3274382.218 -23159960.553 10 0 60805 7200.00000 0 11132365.522 -594154.863 -22944737.953 10 0 60805 8100.00000 0 12267522.205 1957378.557 -22284019.942 10 0 60805 9000.00000 0 13540088.040 4321049.496 -21190780.881 10 0 60805 9900.00000 0 14902862.480 6446156.446 -19686369.503 10 0 60805 10800.00000 0 16301302.570 8292317.661 -17800086.584 10 0 60805 11700.00000 0 17675795.446 9830889.464 -15568610.956 10 0 60805 12600.00000 0 18964160.245 11045893.134 -13035285.181 10 0 60805 13500.00000 0 20104274.942 11934413.864 -10249274.637 10 0 60805 14400.00000 0 21036718.476 12506457.080 -7264616.081 10 0 60805 15300.00000 0 21707317.879 12784269.914 -4139173.826 10 0 60805 16200.00000 0 22069494.085 12801157.690 -933523.337 10 0 60805 17100.00000 0 22086308.374 12599846.236 2290216.570 10 0 60805 18000.00000 0 21732123.782 12230459.527 5469580.690 10 0 60805 18900.00000 0 20993811.782 11748198.171 8542960.848 10 0 60805 19800.00000 0 19871453.318 11210816.550 11450792.888 10 0 60805 20700.00000 0 18378504.203 10676004.751 14136704.705 10 0 60805 21600.00000 0 16541417.100 10198785.363 16548603.513 10 0 60805 22500.00000 0 14398734.684 9829034.528 18639681.798 10 0 60805 23400.00000 0 11999690.532 9609231.475 20369322.856 10 0 60805 24300.00000 0 9402374.547 9572531.304 21703888.743 10 0 60805 25200.00000 0 6671537.737 9741242.395 22617375.646 10 0 60805 26100.00000 0 3876126.149 10125773.070 23091923.981 10 0 60805 27000.00000 0 1086645.018 10724092.718 23118173.214 10 0 60805 27900.00000 0 -1627538.644 11521731.281 22695454.083 10 0 60805 28800.00000 0 -4200843.936 12492318.545 21831813.813 10 0 60805 29700.00000 0 -6573965.123 13598642.155 20543872.905 10 0 60805 30600.00000 0 -8696098.849 14794181.437 18856515.205 10 0 60805 31500.00000 0 -10526816.913 16025053.857 16802416.077 10 0 60805 32400.00000 0 -12037506.567 17232293.294 14421416.736 10 0 60805 33300.00000 0 -13212318.105 18354364.790 11759755.929 10 0 60805 34200.00000 0 -14048580.020 19329809.907 8869173.232 10 0 60805 35100.00000 0 -14556664.418 20099910.753 5805901.100 10 0 60805 36000.00000 0 -14759308.671 20611259.376 2629565.393 10 0 60805 36900.00000 0 -14690422.476 20818122.816 -597983.639 10 0 60805 37800.00000 0 -14393431.619 20684502.526 -3813886.248 10 0 60805 38700.00000 0 -13919229.610 20185799.696 -6955509.068 10 0 60805 39600.00000 0 -13323825.261 19310014.821 -9961676.574 10 0 60805 40500.00000 0 -12665787.337 18058429.805 -12773872.744 10 0 60805 41400.00000 0 -12003595.922 16445743.069 -15337388.390 10 0 60805 42300.00000 0 -11393013.967 14499651.577 -17602390.875 10 0 60805 43200.00000 0 -10884591.244 12259897.261 -19524894.874 10 0 60805 44100.00000 0 -10521406.896 9776818.018 -21067615.225 10 0 60805 45000.00000 0 -10337146.146 7109464.276 -22200685.567 10 0 60805 45900.00000 0 -10354592.140 4323360.162 -22902229.486 10 0 60805 46800.00000 0 -10584595.964 1488002.842 -23158774.038 10 0 60805 47700.00000 0 -11025567.390 -1325795.813 -22965498.697 10 0 60805 48600.00000 0 -11663506.870 -4048615.068 -22326316.074 10 0 60805 49500.00000 0 -12472576.514 -6615066.937 -21253783.864 10 0 60805 50400.00000 0 -13416185.223 -8966264.950 -19768850.663 10 0 60805 51300.00000 0 -14448541.805 -11052018.993 -17900441.217 10 0 60805 52200.00000 0 -15516610.487 -12832666.716 -15684889.567 10 0 60805 53100.00000 0 -16562386.579 -14280467.260 -13165231.238 10 0 60805 54000.00000 0 -17525396.868 -15380501.194 -10390368.144 10 0 60805 54900.00000 0 -18345319.995 -16131041.105 -7414122.156 10 0 60805 55800.00000 0 -18964617.143 -16543379.076 -4294195.357 10 0 60805 56700.00000 0 -19331062.909 -16641119.846 -1091056.740 10 0 60805 57600.00000 0 -19400070.358 -16458970.453 2133223.542 10 0 60805 58500.00000 0 -19136712.776 -16041078.054 5316170.202 10 0 60805 59400.00000 0 -18517357.168 -15438986.260 8396106.374 10 0 60805 60300.00000 0 -17530840.640 -14709296.108 11313341.889 10 0 60805 61200.00000 0 -16179139.720 -13911130.017 14011323.645 10 0 60805 62100.00000 0 -14477503.653 -13103505.155 16437726.276 10 0 60805 63000.00000 0 -12454044.856 -12342726.393 18545462.499 10 0 60805 63900.00000 0 -10148802.191 -11679908.144 20293593.941 10 0 60805 64800.00000 0 -7612314.454 -11158729.052 21648125.212 10 0 60805 65700.00000 0 -4903761.719 -10813513.823 22582666.089 10 0 60805 66600.00000 0 -2088750.125 -10667723.002 23078949.019 10 0 60805 67500.00000 0 763169.516 -10732914.582 23127191.791 10 0 60805 68400.00000 0 3581147.748 -11008221.842 22726297.895 10 0 60805 69300.00000 0 6295738.437 -11480370.358 21883890.028 10 0 60805 70200.00000 0 8841545.398 -12124234.617 20616175.163 10 0 60805 71100.00000 0 11159704.284 -12903912.122 18947642.708 10 0 60805 72000.00000 0 13200096.705 -13774270.934 16910600.449 10 0 60805 72900.00000 0 14923204.363 -14682906.426 14544556.158 10 0 60805 73800.00000 0 16301525.669 -15572425.456 11895455.899 10 0 60805 74700.00000 0 17320495.362 -16382961.734 9014793.195 10 0 60805 75600.00000 0 17978868.499 -17054815.929 5958606.026 10 0 60805 76500.00000 0 18288552.723 -17531108.230 2786381.307 10 0 60805 77400.00000 0 18273896.210 -17760330.069 -440111.291 10 0 60805 78300.00000 0 17970461.965 -17698685.708 -3658032.562 10 0 60805 79200.00000 0 17423341.161 -17312123.099 -6804709.223 10 0 60805 80100.00000 0 16685078.035 -16577966.677 -9818866.167 10 0 60805 81000.00000 0 15813295.508 -15486081.734 -12641830.179 10 0 60805 81900.00000 0 14868123.366 -14039520.150 -15218680.494 10 0 60805 82800.00000 0 13909539.142 -12254619.519 -17499322.836 10 0 60805 83700.00000 0 12994735.193 -10160551.091 -19439465.498 10 0 60805 84600.00000 0 12175623.899 -7798335.350 -21001478.377 10 0 60805 85500.00000 0 11496586.633 -5219366.599 -22155118.506 99